Regional Weather Roundup
Issued by NWS Wakefield, VA

Home | Current Version | Previous Version | Text Only | Print | Product List | Glossary On
Versions: 1 2 3 4 5 6 7 8 9 10 11 12 13 14 15 16 17 18 19 20 21 22 23 24 25 26 27 28 29 30 31 32 33 34 35 36 37 38 39 40 41 42 43 44 45 46 47 48
000
ASUS41 KAKQ 292313
RWRAKQ

REGIONAL WEATHER ROUNDUP
NATIONAL WEATHER SERVICE WAKEFIELD VA
700 PM EDT SAT AUG 29 2015

Note: "fair" indicates few or no clouds below 12,000 feet with no
significant weather and/or obstructions to visibility. * = Denotes
station may not report precipitation (e.g., rain,snow,etc.),
thunder or fog.

VAZ042-051-052>054-056-300000-
NORTHERN VIRGINIA

CITY           SKY/WX    TMP DP  RH WIND       PRES   REMARKS
WASH NATIONAL  MOCLDY    83  65  54 S10       30.10S
DULLES         MOCLDY    82  63  52 S8        30.10S
FORT BELVOIR   CLOUDY    81  66  60 SE6       30.09F
QUANTICO       CLOUDY    80  65  59 SW5       30.10S
FREDERICKSBRG* CLOUDY    82  66  58 S5        30.09S
STAFFORD*      CLOUDY    79  60  52 S3        30.14S
WARRENTON      CLOUDY    81  67  63 E5        30.10S
CULPEPER*      MOCLDY    80  64  58 S5        30.10S
MANASSAS*      PTCLDY    81  64  57 S5        30.10S
LEESBURG*      PTCLDY    86  68  54 S6        30.10S
WINCHESTER     PTCLDY    82  63  51 SE6       30.10S
FRONT ROYAL*   FAIR      81  64  57 CALM      30.08F
LURAY*         CLOUDY    81  61  50 S5        30.11R
$$

VAZ048-049-060>072-079>083-300000-
CENTRAL AND SOUTH CENTRAL VIRGINIA

CITY           SKY/WX    TMP DP  RH WIND       PRES   REMARKS
RICHMOND       CLOUDY    81  63  54 SE9       30.11F
CHESTERFIELD*  FAIR      81  57  44 SW5       30.13F
PETERSBURG*    CLOUDY    77  75  93 CALM      30.13S
HANOVER        CLOUDY    76  66  71 SE3       30.12F
TAPPAHANNOCK*  CLOUDY    77  61  56 SE5       30.12S
QUINTON*       FAIR      78  66  66 E7        30.12S
CHARLOTTSVILLE CLOUDY    80  63  55 S9        30.11S
GORDONSVILLE*  FAIR      78  67  70 CALM      30.10S
ORANGE*        CLOUDY    81  63  54 CALM      30.12S
LOUISA*        CLOUDY    81  64  57 S3        30.10F
BUMPASS*       FAIR      78  65  63 CALM      30.11S
FARMVILLE*     MOCLDY    82  60  46 S5        30.11S
CREWE*         FAIR     N/A N/A N/A CALM      30.12S
FORT PICKETT*  FAIR      77  66  68 S3        30.12F
CHASE CITY*    FAIR      83  62  48 CALM      30.13S
CLARKSVILLE*   FAIR      79  63  57 SE3       30.12S
SOUTH HILL*    MOCLDY    77  67  70 CALM      30.18S
LAWRENCEVILLE* FAIR      73  66  78 CALM      30.12F
EMPORIA*       MOCLDY    73  68  83 CALM      30.13S
$$

VAZ088>098-300000-
SOUTHEAST VIRGINIA

CITY           SKY/WX    TMP DP  RH WIND       PRES   REMARKS
NORFOLK        CLOUDY    77  60  55 E6        30.13F
VIRGINIA BEACH CLOUDY    78  61  55 E6        30.12F
NORFOLK NAVAL  CLOUDY    78  62  57 E7        30.14F
WEST POINT*    CLOUDY    79  62  57 SE7       30.14S
SALUDA*        FAIR      76  65  69 SE8       30.12F
NEWPORT NEWS   CLOUDY    76  61  59 E8        30.13F
LANGLEY AFB    CLOUDY    76  63  63 SE5       30.12F
FORT EUSTIS    CLOUDY    78  61  54 SE8       30.11F
WILLIAMSBURG*  CLOUDY    81  66  61 E6        30.13F
HR EXEC AP*      N/A     77  61  57 SE7       30.15S
FRANKLIN*      CLOUDY    78  64  60 SE6       30.13S
WAKEFIELD      CLOUDY    78  61  55 CALM      30.13S
$$

VAZ020-022-025-037-045-300000-
WEST CENTRAL AND SOUTHWEST VIRGINIA

CITY           SKY/WX    TMP DP  RH WIND       PRES   REMARKS
STAUNTON*      CLOUDY    82  62  50 S6        30.14S
WAYNESBORO*    FAIR      79  62  55 S6        30.15S
HOT SPRINGS VA MOCLDY    70  60  71 S7        30.26S
LYNCHBURG      PTCLDY    78  59  51 SW3       30.15S
DANVILLE       MOCLDY    80  64  58 CALM      30.13S
SOUTH BOSTON*  FAIR      82  61  47 CALM      30.12S
MARTINSVILLE   MOCLDY    77  66  70 CALM      30.17S
ROANOKE        MOCLDY    80  60  50 S7        30.16S
BLACKSBURG     PTSUNNY   76  63  64 CALM      30.22S
DUBLIN*        PTSUNNY   77  64  63 SW5       30.20F
MARION*        PTSUNNY   76  63  64 CALM      30.24R
HILLSVILLE*    CLOUDY    73  61  67 S3        30.22S
RICHLANDS*     FAIR      74  30  20 SE3       30.21F
WISE*          MOSUNNY   77  59  53 S5        30.22S
ABINGDON*      CLOUDY    79  61  53 SE5       30.18S
$$

MDZ021>025-VAZ099-100-300000-
SOUTHERN MARYLAND AND THE DELMARVA PENINSULA

CITY           SKY/WX    TMP DP  RH WIND       PRES   REMARKS
PATUXENT RIVER MOCLDY    77  63  61 S7        30.12S
BAY BRIDGE APT   N/A     81  61  50 S8        30.11S
LEONARDTOWN    MOCLDY    77  61  57 CALM      30.14S
DOVER          PTCLDY    77  66  69 SE9       30.10F
GEORGETOWN     MOCLDY    76  60  57 S8        30.14S
EASTON         PTCLDY    81  63  54 S7        30.15F
CAMBRIDGE      MOCLDY    79  63  57 S3        30.12S
SALISBURY      MOCLDY    75  62  64 S5        30.13F
OCEAN CITY     MOCLDY    76  60  57 S6        30.14F
WALLOPS ISLAND CLOUDY    75  62  64 SE6       30.15F
ACCOMACK*      CLOUDY    72  50  46 SE5       30.14F
$$

NCZ012>017-030>032-300000-
NORTH CENTRAL AND EASTERN NORTH CAROLINA

CITY           SKY/WX    TMP DP  RH WIND       PRES   REMARKS
ROANOKE RAPIDS FAIR      79  61  53 CALM      30.12S
RALEIGH        CLOUDY    82  58  43 SE5       30.12F
ELIZABETH CITY CLOUDY    76  64  66 NE7       30.13F
AHOSKIE*       CLEAR     77  63  61 SE3       30.13S
EDENTON*       CLOUDY    77  65  66 NE3       30.13S
CURRITUCK*     CLOUDY    77  61  57 NE5       30.14S
KILL DEVIL HLS CLOUDY    77  65  66 NE7       30.11S
MANTEO         CLOUDY    76  66  71 NE9       30.12F
CAPE HATTERAS  PTCLDY    77  71  82 NE9       30.09F
TARBORO*       FAIR      80  62  53 E3        30.12S
GOLDSBORO      CLEAR     82  61  49 E5        30.10F
WASHINGTON     MOCLDY    77  64  63 NE3       30.12S
GREENVILLE     PTCLDY    81  63  54 SE6       30.14R
NEW BERN       PTCLDY    80  62  54 NE9       30.13S
WILMINGTON     MOCLDY    81  66  60 N6        30.10F
$$

VAZ048-300000-
ELSEWHERE

CITY           SKY/WX    TMP DP  RH WIND       PRES   REMARKS
HARRISBURG PA  MOCLDY    80  69  69 CALM      30.08F
BALTIMORE      MOCLDY    79  66  64 S5        30.09S
ANNAPOLIS      MOCLDY    79  63  57 S14G20    30.10S
ANDREWS AFB    MOCLDY    81  64  55 S12       30.10S
PHILADELPHIA   MOCLDY    84  61  45 SW9       30.10F
HENDERSON NC   MOCLDY    80  58  47 CALM      30.13S
GREENSBORO     CLOUDY    81  54  39 CALM      30.14S
ROCKY MOUNT    PTCLDY    82  56  40 NE3       30.12S
$$

VAZ100-300000-
MARINE

STATION/POSITION TIME  TEMP    WIND        PRES    WAVE   SWELL
                       AIR SEA DIR/SP/G            HT/PER HT/PER
                 (UTC) (F)     (DEG/KT/KT) (MB)    (FT/S) (FT/S)
15NM E FENWICK I 2250   76 79  150/ 10/ 12 1020.7F   3/10   3/10
THOMAS POINT MD  2200   79 79  170/ 18     1019.9
GOOSES REEF MD   2300   79 79  170/ 14/ 17 1020.6F
POTOMAC MD       2300   79 80  190/ 14/ 17 1019.0F   1/ 3
STINGRAY PT      2200   79 80  150/ 10/ 14 1021.0F   1
JAMESTOWN VA     2300   79 82  120/ 10/ 12   N/A
CHESAPEAKE LGHT  2200   76      60/  9/ 10 1021.4F
CAPE HENRY BUOY  2228      79                N/A     4/11   2/11
1ST LANDING BUOY 2300      79              1019.9F   2/ 4
CAPE CHARLES BUO 2226      79                N/A     3/11   3/11
OFFSHORE WE BUOY 2211      78                N/A     4/11   5/11
64NM E OF VA BCH 2250   77 78   60/ 14/ 16 1019.3F   4/11   3/11
44100 DUCK FRF   2224      78                N/A     4/11   2/11
44056 DUCK FRF   2211      78                N/A     4/11   3/11
DIAMOND SHLS NC  2250   78 82   30/ 19/ 21 1018.2F   5/10   3/10
CAPE LOOKOUT NC  2300   79      10/ 11/ 15 1018.9S
$$


USA.gov is the U.S. government's official web portal to all federal, state and local government web resources and services.